Regional Weather Roundup
Issued by NWS

Home | Current Version | Previous Version | Graphics & Text | Print | Product List | Glossary On
Versions: 1 2 3 4 5 6 7 8 9 10 11 12 13 14 15 16 17 18 19 20 21 22 23 24 25 26 27 28 29 30 31 32 33 34 35 36 37 38 39 40 41 42 43 44 45 46 47 48 49 50
000
ASUS43 KIND 271209
RWRIN

WEATHER ROUNDUP FOR INDIANA
NATIONAL WEATHER SERVICE INDIANAPOLIS IN
800 AM EDT SAT AUG 27 2016

NOTE: "FAIR" INDICATES FEW OR NO CLOUDS BELOW 12,000 FEET WITH NO
SIGNIFICANT WEATHER AND/OR OBSTRUCTIONS TO VISIBILITY.

* - STATION DOES NOT REPORT WEATHER SUCH AS PRECIPITATION OR FOG.

+ - STATION NOT QUALITY CONTROLLED BY THE NATIONAL WEATHER SERVICE.
    USE DATA WITH CAUTION...ESPECIALLY DEWPOINT AND RELATIVE
    HUMIDITY OBSERVATIONS.

INZ001>003-010>013-019-020-271300-
NORTHWEST INDIANA

CITY           SKY/WX    TMP DP  RH WIND       PRES   REMARKS
GARY /AIRPORT/ RAIN      70  70 100 CALM      30.10R
KNOX *+        CLOUDY    70  55  60 CALM      30.11R
LA PORTE +     RAIN     N/A N/A N/A CALM      30.13F
                                      6HR PCP:  0.44;

MICHIGAN CITY+ RAIN      68  68 100 MISG      30.11F
MONTICELLO +   CLOUDY    72  67  86 CALM      30.10R
6HR MIN TEMP:  70; 6HR MAX TEMP:  72;

RENSSELAER +   CLOUDY    70  70 100 CALM      30.10R
VALPARAISO     LGT RAIN  69  68  96 NE3       30.11R
6HR MIN TEMP:  68; 6HR MAX TEMP:  70; 6HR PCP:  0.50;


$$

LMZ046-743>745-271300-
SOUTHERN LAKE MICHIGAN

STATION/POSITION TIME  TEMP    WIND        PRES    WAVE
                       AIR SEA DIR/SP/G            HT
                 (UTC) (F)     (DEG/KT/KT) (MB)    (FT)
BURNS HARBOR     1106   69     230/  2/ 22 1019.6R
MICHIGAN CITY    1100   71     240/  6/  8   N/A
5NW MICH CITY    1200   70 74   50/  6/  8   N/A     1

$$

INZ004-005-014>016-021>024-271300-
NORTH CENTRAL INDIANA

CITY           SKY/WX    TMP DP  RH WIND       PRES   REMARKS
ELKHART        LGT RAIN  72  64  78 SE6       30.10
GOSHEN         CLOUDY    71  63  75 E7        30.10R
6HR MIN TEMP:  69; 6HR MAX TEMP:  72;

LOGANSPORT +   CLOUDY    70  70 100 CALM      30.12R FOG
PERU/GRISSOM   CLOUDY    71  71 100 SW5       30.11R
6HR MIN TEMP:  71; 6HR MAX TEMP:  72;

ROCHESTER +    CLOUDY    73  72  94 S8        30.12R
SOUTH BEND     TSTM      68  67  96 W10       30.14R FOG
6HR MIN TEMP:  69; 6HR MAX TEMP:  71; 6HR PCP:  0.07;

WARSAW +       MOCLDY    70  70 100 CALM      30.11R

$$

INZ006>009-017-018-025>027-271300-
NORTHEAST INDIANA

CITY           SKY/WX    TMP DP  RH WIND       PRES   REMARKS
ANGOLA *+      CLEAR     72  63  73 SE7       30.12R
AUBURN +       CLOUDY    70  61  73 E3        30.12R
FORT WAYNE     CLOUDY    71  65  81 E5        30.11R
6HR MIN TEMP:  69; 6HR MAX TEMP:  72;

HUNTINGTON +   CLOUDY    71  68  90 SE3       30.11R
6HR MIN TEMP:  68; 6HR MAX TEMP:  71;


$$

INZ028-029-035-036-043>045-051>053-271300-
WEST CENTRAL INDIANA

CITY           SKY/WX    TMP DP  RH WIND       PRES   REMARKS
CRAWFORDSVL +  MOCLDY    68  68 100 CALM      30.11R
6HR MIN TEMP:  67; 6HR MAX TEMP:  68; 6HR PCP:  0.01;

GREENCASTLE +  MOCLDY    70  70 100 CALM      30.12R
LAFAYETTE      CLOUDY    70  70 100 CALM      30.10R
6HR MIN TEMP:  69; 6HR MAX TEMP:  72;

TERRE HAUTE    CLOUDY    72  70  93 CALM      30.09R
6HR MIN TEMP:  71; 6HR MAX TEMP:  74; 6HR PCP:  0.01;


$$

INZ030>032-037>040-046>048-054>057-064-065-271300-
CENTRAL INDIANA

CITY           SKY/WX    TMP DP  RH WIND       PRES   REMARKS
INDIANAPOLIS   CLOUDY    72  69  90 E3        30.10R
6HR MIN TEMP:  71; 6HR MAX TEMP:  72;

-EAGLE CREEK   MOCLDY    72  70  93 CALM      30.10R
6HR MIN TEMP:  71; 6HR MAX TEMP:  73;

KOKOMO *+      MOCLDY    72  72 100 SW6       30.11R
6HR MIN TEMP:  70; 6HR MAX TEMP:  72;

MARION +       PTCLDY    70  69  95 SE5       30.11R FOG
MT COMFORT *+  PTCLDY    70  68  94 CALM      30.12R
SHELBYVILLE    PTCLDY    73  69  87 CALM      30.11R FOG
6HR MIN TEMP:  70; 6HR MAX TEMP:  73;

ZIONSVILLE +   PTCLDY    69  68  98 CALM      30.12R FOG
6HR MIN TEMP:  66; 6HR MAX TEMP:  69;


$$

INZ033-034-041-042-049-050-058-059-271300-
EAST CENTRAL INDIANA

CITY           SKY/WX    TMP DP  RH WIND       PRES   REMARKS
MUNCIE         PTCLDY    72  69  90 CALM      30.11R
6HR MIN TEMP:  70; 6HR MAX TEMP:  73;


$$

INZ060-061-067>069-081>083-085>088-271300-
SOUTHWEST INDIANA

CITY           SKY/WX    TMP DP  RH WIND       PRES   REMARKS
EVANSVILLE     CLOUDY    73  71  93 NE3       30.08R
6HR MIN TEMP:  72; 6HR MAX TEMP:  75; 6HR PCP:  0.14;

HUNTINGBURG *+ CLOUDY    73  70  88 N3        30.07R
6HR MIN TEMP:  73; 6HR MAX TEMP:  77;

WASHINGTON +   RAIN      72  72 100 MISG      30.09R
6HR MIN TEMP:  72; 6HR MAX TEMP:  77; 6HR PCP:  0.01;


$$

INZ062-063-066-070>080-084-089>092-271300-
SOUTH CENTRAL AND SOUTHEAST INDIANA

CITY           SKY/WX    TMP DP  RH WIND       PRES   REMARKS
BLOOMINGTON    CLOUDY    72  69  90 CALM      30.10R
6HR MIN TEMP:  71; 6HR MAX TEMP:  75;

MADISON *+     CLOUDY    72  70  94 CALM      30.12R

$$




USA.gov is the U.S. government's official web portal to all federal, state and local government web resources and services.